Weather History for Springfield, VT

Change the Weather History Date:

Wednesday, October 23, 2013

  Actual Average Record
Temperature  
Mean Temperature 41 °F 45 °F  
Max Temperature 52 °F 56 °F 72 °F (2007)
Min Temperature 29 °F 34 °F 21 °F (1997)
Degree Days  
Heating Degree Days 24 20  
Month to date heating degree days 288 385  
Since 1 July heating degree days 559 637  
Cooling Degree Days 0 0  
Month to date cooling degree days 0 0  
Year to date cooling degree days 495 344  
Moisture  
Dew Point 31 °F    
Average Humidity 71    
Maximum Humidity 100    
Minimum Humidity 42    
Precipitation  
Precipitation 0.00 in 0.13 in 1.20 in (2014)
Month to date precipitation 1.69 3.51  
Year to date precipitation 32.15 35.64  
Sea Level Pressure  
Sea Level Pressure 29.72 in    
Wind  
Wind Speed 2 mph (WSW)    
Max Wind Speed 13 mph    
Max Gust Speed 20 mph    
Visibility 9 miles    
Events      
T = Trace of Precipitation, MM = Missing Value Source: NWS Daily Summary

Daily Weather History Graph

Daily Weather History Graph

Search for Another Location

Airport:

Trip Planner

Search our weather history database for the weather conditions in past years. The results will help you decide how hot, cold, wet, or windy it might be!

Date:

Astronomy

Oct. 23, 2013 Rise Set
Actual Time 7:14 AM EDT 5:53 PM EDT
Civil Twilight 6:44 AM EDT 6:23 PM EDT
Nautical Twilight 6:11 AM EDT 6:56 PM EDT
Astronomical Twilight 5:38 AM EDT 7:29 PM EDT
Moon 9:18 PM EDT (10/23) 11:33 AM EDT (10/23)
Length of Visible Light 11h 38m
Length of Day
10h 39m
Waning Gibbous, 79% of the Moon is Illuminated
Oct 23
Waning Gibbous
Oct 26
Last Quarter
Nov 3
New
Nov 10
First Quarter
Nov 17
Full

Hourly Weather History & Observations

Time (EDT) Temp. Windchill Dew Point Humidity Pressure Visibility Wind Dir Wind Speed Gust Speed Precip Events Conditions
12:54 AM 33.1 °F - 30.9 °F 92% 29.81 in 10.0 mi Calm Calm - N/A   Clear
1:54 AM 32.0 °F - 30.0 °F 92% 29.81 in 10.0 mi Calm Calm - N/A   Clear
2:54 AM 32.0 °F - 30.0 °F 92% 29.81 in 10.0 mi Calm Calm - N/A   Clear
3:54 AM 32.0 °F - 30.9 °F 96% 29.80 in 10.0 mi Calm Calm - N/A   Clear
4:54 AM 30.9 °F - 28.9 °F 92% 29.79 in 9.0 mi Calm Calm - N/A   Clear
5:37 AM 30.2 °F - 28.4 °F 93% 29.77 in 9.0 mi Calm Calm - N/A   Partly Cloudy
5:54 AM 30.0 °F - 28.9 °F 96% 29.78 in 3.0 mi Calm Calm - N/A   Partly Cloudy
6:28 AM 30.2 °F - 28.4 °F 93% 29.75 in 1.8 mi Calm Calm - N/A   Mostly Cloudy
6:35 AM 30.2 °F - 28.4 °F 93% 29.75 in 3.0 mi Calm Calm - N/A   Mostly Cloudy
6:54 AM 30.9 °F - 30.0 °F 96% 29.76 in 10.0 mi Calm Calm - N/A   Mostly Cloudy
7:07 AM 30.2 °F - 28.4 °F 93% 29.75 in 10.0 mi Calm Calm - N/A   Partly Cloudy
7:54 AM 30.9 °F - 30.0 °F 96% 29.78 in 10.0 mi Calm Calm - N/A   Clear
8:54 AM 35.1 °F - 33.1 °F 92% 29.78 in 10.0 mi Calm Calm - N/A   Overcast
9:54 AM 39.0 °F - 34.0 °F 82% 29.78 in 10.0 mi Calm Calm - N/A   Mostly Cloudy
10:54 AM 43.0 °F - 34.0 °F 71% 29.75 in 10.0 mi Calm Calm - N/A   Overcast
11:54 AM 45.0 °F 43.5 °F 34.0 °F 65% 29.73 in 10.0 mi Variable 3.5 mph - N/A   Overcast
12:54 PM 48.9 °F - 32.0 °F 52% 29.70 in 10.0 mi South 6.9 mph - N/A   Scattered Clouds
1:54 PM 51.1 °F - 30.0 °F 44% 29.64 in 10.0 mi Calm Calm - N/A   Mostly Cloudy
2:54 PM 50.0 °F - 30.0 °F 46% 29.63 in 10.0 mi Calm Calm - N/A   Overcast
3:54 PM 50.0 °F - 28.0 °F 43% 29.62 in 10.0 mi WSW 6.9 mph - N/A   Overcast
4:54 PM 48.9 °F - 28.0 °F 44% 29.63 in 10.0 mi WSW 4.6 mph - N/A   Overcast
5:54 PM 46.9 °F - 32.0 °F 56% 29.64 in 10.0 mi Calm Calm - N/A   Overcast
6:54 PM 44.1 °F - 34.0 °F 68% 29.65 in 10.0 mi Calm Calm - N/A   Overcast
7:54 PM 45.0 °F 39.3 °F 34.0 °F 65% 29.65 in 10.0 mi WNW 11.5 mph 17.3 mph N/A   Overcast
8:54 PM 44.1 °F 40.1 °F 34.0 °F 68% 29.66 in 10.0 mi Variable 6.9 mph - N/A   Overcast
9:54 PM 44.1 °F - 34.0 °F 68% 29.67 in 10.0 mi Calm Calm - N/A   Overcast
10:54 PM 43.0 °F 40.3 °F 34.0 °F 71% 29.67 in 10.0 mi West 4.6 mph - N/A   Overcast
11:54 PM 43.0 °F 40.3 °F 34.0 °F 71% 29.68 in 10.0 mi West 4.6 mph - N/A   Mostly Cloudy